Location: Big Sable Point
(44.0575°N, 86.5149°W)
Time: 00:35:44
(UTC-04:00)

Envisat - Visible Passes

Search period start: 18 July 2018 00:00
Search period end: 28 July 2018 00:00
Orbit: 764 x 766 km, 98.2° (Epoch: 17 July)

Date Brightness Start Highest point End Pass type
(mag) Time Alt. Az. Time Alt. Az. Time Alt. Az.
18 Jul 5.7 22:25:33 10° WSW 22:28:04 14° W 22:30:36 10° WNW visible
21 Jul 5.6 22:13:27 10° SW 22:16:47 17° W 22:20:06 10° NW visible
24 Jul 5.4 22:01:38 10° SW 22:05:29 22° W 22:09:23 10° NW visible
26 Jul 5.8 22:29:18 10° WSW 22:31:22 12° W 22:33:26 10° WNW visible
27 Jul 5.1 21:49:57 10° SSW 21:54:13 27° W 21:58:32 10° NW visible
